Weather in Ilmen

Russia / Samara Oblast     52°54′08″N   48°44′53″E
temp.,
°C
wind,
m/s
gust,
m/s
humid.,
%
clouds,
%
prec.,
mm/h
press.,
hPa
HPBL,
m
25 february, thu
thu2501:00−26wnw239068 0.0 103721
04:00−24w228882 0.0 103620
07:00−24s228797 0.0 103521
10:00−21ssw468898 0.0 1032231
13:00−18s61089100 0.0 1030351
16:00−16s81495100 1.1 1025542
19:00−15s71494100 1.6 1022678
22:00−13s61294100 3.1 1019632
26 february, fri
fri2601:00−11s51095100 1.2 1016490
04:00−10s5895100 1.9 1015346
07:00−11sse359698 0.4 1013118
10:00−10sse249593 0.6 1014161
13:00−7se349299 0.2 1013319
16:00−7se3594100 0.3 1012329
19:00−7sse5895100 0.6 1009305
22:00−4s51096100 2.4 1006341
27 february, sat
sat2701:00+2sw512100100 3.4 1001289
04:00+2w51299100 3.6 1000284
07:00+1wsw5109196 0.1 1000321
10:00+1wsw5109698 0.1 1000403
13:00+1wsw51010079 0.1 1000364
16:00+1wsw499783 0.2 1000323
19:000sw499194 0.0 1000220
22:00−2sw489496 0.1 1000173
28 february, sun
sun2801:00−1sw3798100 0.4 999258
04:00−2sw3697100 1.0 1000194
07:00−3sw2398100 0.6 100171
10:00−7n5995100 1.4 1003354
13:00−8nnw5892100 0.3 1005445
16:00−8nnw6990100 0.4 1007543
19:00−13nnw51091100 0.0 1010283
22:00−15nw499184 0.0 1013229
1 march, mon
mon101:00−14nnw4109372 0.0 1015335
04:00−15nnw499479 0.1 1016357
07:00−17nnw599199 0.1 1019396
10:00−17nnw589185 0.1 1020397
13:00−14nnw588982 0.0 1022472
16:00−13nnw478884 0.0 1022506
19:00−17nnw349152 0.0 102459
22:00−18nw239226 0.0 102521